Location: Unspecified
(0.0000°N, 0.0000°E)
Time: 12:50:03
(UTC+00:00)

Explorer 11/Cluster Stage 4 - Pass Details

Date: 23 September 2019
Orbit: 467 x 1259 km, 28.8° (Epoch: 13 October)

Event Time Altitude Azimuth Distance (km) Brightness Sun altitude
Exits shadow 04:14:42 35° 36° (NE) 770 6.8 -24.5°
Drops below altitude 10° 04:17:58 10° 98° (E) 1,653 9.3 -23.7°
Sets 04:20:22 0° 107° (ESE) 2,596 10.5 -23.1°
